www.pogodaiklimat.ru

Погода и климат >> Архив погоды >> Испания >> Pontevedra


ПОГОДА в Pontevedra

  • Прогноз погоды в Pontevedra
  • Монитор погоды в Pontevedra
  • Климат города

АРХИВ ПОГОДЫ в Pontevedra

Время (UTC), дата Ветер
(напр.,м/с)
 
Видим.   Явления Облачность Т
(С)
Тd
(С)
f
(%)
Тe
(С)
Тes
(С)
Комфортность P
(гПа)
Po
(гПа)
Тmin
(С)
Tmax
(С)
R
(мм)
R24
(мм)
S
(см)
14 8.12 ЮВ 1 300 м морось с дождем н/о +12.6 +12.6 100 +13 +13 1026.4 1013.3 1
13 8.12 ЮВ 1 800 м морось с дождем н/о +12.2 +12.2 100 +13 +13 1027.1 1014.0 2
15 8.12 Ю 1 500 м морось {туман} 10/10 50 м
[Frnb]
+13.0 +13.0 100 +14 +14 1026.1 1013.0 4
16 8.12 ЮЗ 1 100 м слаб. дождь н/о +13.7 +13.7 100 +15 +15 1026.2 1013.2 0.2
17 8.12 З 2 900 м слаб. морось н/о +13.9 +13.9 100 +14 +14 1026.4 1013.4 0.0
18 8.12 штиль 0 6000 м в посл. час морось {туман} 10/10 200 м
[Sc]
+13.2 +13.2 100 +13 +13 1027.0 1013.9 +13.9 0.2
20 8.12 СВ 1 2400 м в посл. час морось н/о +12.3 +12.3 100 +13 +13 1027.5 1014.4 0.0
19 8.12 ЮВ 1 700 м н/о +12.6 +12.6 100 +12 +12 1027.2 1014.1
21 8.12 Ю 1 1400 м н/о +11.9 +11.9 100 +12 +12 1027.7 1014.6 0.0
22 8.12 В 1 1600 м в посл. час дождь н/о +11.6 +11.6 100 +12 +12 1027.9 1014.7 0.0
23 8.12 З 1 1400 м н/о +11.4 +11.4 100 +12 +12 1027.9 1014.7
00 9.12 штиль 0 900 м н/о +11.4 +11.4 100 +11 +11 1027.8 1014.6 0.0
02 9.12 Ю 1 600 м слаб. морось н/о +11.4 +11.4 100 +12 +12 1027.2 1014.0 0.0
01 9.12 В 1 1900 м н/о +11.4 +11.4 100 +12 +12 1027.8 1014.6
03 9.12 штиль 0 300 м морось с дождем н/о +11.2 +11.2 100 +10 +10 1027.4 1014.2 0.2
04 9.12 ЮВ 1 2700 м в посл. час морось н/о +11.3 +11.3 100 +12 +12 1027.2 1014.0 0.2
05 9.12 Ю 1 100 м в посл. час морось н/о +11.2 +11.2 100 +12 +12 1026.9 1013.7 0.0
06 9.12 ЮВ 1 5000 м слабая морось 10/10 200 м
[Sc]
+11.6 +11.6 100 +12 +12 1026.6 1013.5 +11.1 0.2
08 9.12 С 1 3400 м слаб. морось н/о +11.4 +11.4 100 +11 +11 1026.3 1013.2 0.2
07 9.12 СВ 1 900 м морось с дождем н/о +11.5 +11.5 100 +12 +12 1026.5 1013.4 0.4
09 9.12 С 1 800 м слабая морось {туман} 10/10 100 м
[Frnb]
+11.5 +11.5 100 +12 +12 1026.4 1013.3 2
10 9.12 СВ 1 700 м слаб. морось н/о +11.6 +11.6 100 +12 +12 1026.5 1013.4 0.6
11 9.12 Ю 1 1500 м дождь н/о +12.2 +12.2 100 +12 +12 1026.3 1013.2 0.6
12 9.12 Ю 1 1500 м в посл. час морось {туман} 10/10 100 м
[Frnb]
+13.6 +13.6 100 +14 +14 1025.7 1012.7 2
14 9.12 З 4 8000 м в посл. час морось н/о +14.0 +14.0 100 +12 +12 1024.1 1011.1 0.0
13 9.12 З 1 3500 м н/о +14.1 +14.1 100 +14 +14 1024.5 1011.5
15 9.12 Ю 1 6000 м дымка 10/10 200 м
[Cu Sc]
+14.1 +14.1 100 +14 +14 1023.6 1010.6 0.0
16 9.12 З 3 8000 м н/о +14.0 +14.0 100 +13 +13 1023.2 1010.2
17 9.12 ЮЗ 1 3400 м в посл. час дождь н/о +14.0 +14.0 100 +14 +14 1023.2 1010.2 0.0
18 9.12 Ю 1 6000 м дымка {ливн. осадки, туман} 10/10 200 м
[Cu Sc]
+14.0 +14.0 100 +14 +14 1023.2 1010.2 +14.2 0.0
20 9.12 З 2 10 км н/о +13.7 +13.7 100 +13 +13 1022.5 1009.5
19 9.12 ЮЗ 1 4600 м н/о +13.8 +13.8 100 +14 +14 1023.0 1010.0
21 9.12 З 2 10 км н/о +13.7 +13.7 100 +13 +13 1022.2 1009.2 0.0
22 9.12 З 1 10 км н/о +13.7 +13.7 100 +14 +14 1021.7 1008.7
23 9.12 ЮЗ 1 10 км н/о +14.0 +14.0 100 +14 +14 1021.1 1008.2
00 10.12 Ю 2 11 км н/о +14.1 +14.1 100 +14 +14 1020.7 1007.8
02 10.12 Ю 2 4400 м дождь н/о +13.8 +13.8 100 +13 +13 1018.6 1005.7 0.2
01 10.12 Ю 1 16 км н/о +13.8 +13.3 97 +14 +14 1019.3 1006.4
03 10.12 Ю 2 14 км в посл. час дождь {морось} н/о +13.9 +13.9 100 +13 +13 1017.5 1004.6 0.4
04 10.12 Ю 3 15 км в посл. час морось н/о +14.4 +13.9 97 +14 +14 1016.2 1003.3 0.0
05 10.12 Ю 3 н/о сильн. дождь н/о +14.6 +14.6 100 +14 +14 1015.2 1002.4 0.2
06 10.12 Ю 3 8000 м в посл. час ливневой дождь 10/10 200 м
[Cu Sc]
+14.6 +14.6 100 +14 +14 1013.5 1000.7 +13.5 0.6
08 10.12 Ю 3 9000 м слаб. дождь н/о +14.7 +14.5 99 +14 +14 1011.6 998.8 0.4
07 10.12 Ю 3 6000 м слаб. дождь н/о +14.8 +14.8 100 +14 +14 1012.9 1000.1 0.2
09 10.12 Ю 4 3000 м слабый ливневой дождь 10/10 200 м
[Cu Sc]
+14.5 +14.5 100 +13 +13 1010.3 997.5 3
10 10.12 Ю 4 3700 м дождь н/о +14.6 +14.6 100 +13 +13 1009.5 996.7 1
11 10.12 Ю 3 1800 м сильн. дождь н/о +14.6 +14.6 100 +14 +14 1008.1 995.4 2
12 10.12 Ю 3 3000 м слабый дождь {туман} 10/8 100 м
[Frnb As op]
+14.6 +14.6 100 +14 +14 1005.7 993.0 6
14 10.12 ЮЗ 2 2200 м сильн. дождь н/о +14.3 +14.3 100 +14 +14 1001.8 989.1 4
13 10.12 Ю 5 6000 м дождь н/о +14.7 +14.7 100 +13 +13 1003.4 990.7 2
15 10.12 Ю 4 1500 м дождь {туман} 10/8 200 м
[Frnb As op]
+14.3 +14.3 100 +13 +13 998.4 985.8 13
16 10.12 Ю 7 8000 м слаб. дождь н/о +14.9 +14.7 99 +13 +13 997.0 984.4 1
17 10.12 Ю 6 2800 м дождь н/о +14.7 +14.7 100 +13 +13 993.8 981.2 3
18 10.12 Ю 6 5000 м слабый дождь {туман} 10/8 200 м
[Frnb As op]
+14.7 +14.4 98 +13 +13 991.1 978.6 +15.0 6
20 10.12 З 10-22
{22}
4000 м дождь н/о +11.1 +9.4 89 +7 +7 989.5 976.8 4
19 10.12 Ю 4 3800 м дождь н/о +13.8 +13.8 100 +12 +12 989.2 976.7 2
21 10.12 З 2
{22}
1000 м сильн. дождь н/о +9.8 +9.8 100 +8 +8 989.1 976.4 11
22 10.12 ЮЗ 2 2900 м дождь н/о +9.9 +9.9 100 +8 +8 988.1 975.4 5
23 10.12 ЮЗ 1 9000 м в посл. час дождь н/о +9.5 +9.5 100 +9 +9 988.0 975.3 2
00 11.12 З 5
{22}
1500 м дождь н/о +9.7 +8.8 94 +6 +6 988.4 975.7 8
02 11.12 СЗ 5 3000 м дождь н/о +7.7 +6.6 93 +4 +4 991.2 978.3 1
01 11.12 З 7 1600 м сильн. дождь н/о +8.0 +6.8 92 +4 +4 989.3 976.5 0.8
03 11.12 З 1 14 км слаб. дождь н/о +6.9 +5.8 93 +6 +6 992.1 979.2 3
04 11.12 ЮВ 2 7000 м дождь н/о +6.5 +6.4 99 +4 +4 992.2 979.3 0.2
05 11.12 ЮВ 2 4800 м сильн. дождь н/о +6.4 +6.4 100 +4 +4 992.8 979.8 3
06 11.12 СЗ 1 10 км в посл. час ливневой дождь 9/9 300 м
[Cu Sc]
+6.2 +6.2 100 +5 +5 993.0 980.0 +6.1 4
08 11.12 В 2 10 км в посл. час дождь н/о +7.2 +7.2 100 +5 +5 993.4 980.5 2
07 11.12 Ю 2 17 км слаб. дождь н/о +6.9 +6.6 98 +4 +4 992.9 980.0 0.6
09 11.12 С 1 6000 м слабый ливневой дождь 10/8 200 м
[Cu Sc Ac As]
+7.4 +7.4 100 +6 +6 993.6 980.7 3
10 11.12 СЗ 3 700 м в посл. час дождь н/о +7.7 +6.3 91 +5 +5 995.9 983.0 2
11 11.12 СЗ 4 800 м слаб. морось с дождем н/о +8.1 +6.7 91 +5 +5 998.1 985.2 0.0
12 11.12 СЗ 4 10 км в посл. час ливневой дождь 8/6 300 м
[Cu Sc Ac lent]
+7.7 +5.7 87 +4 +5 999.6 986.6 2
14 11.12 СЗ 6 1000 м н/о +8.1 +4.7 79 +4 +4 1001.8 988.8 0.2
13 11.12 СЗ 3 1500 м в посл. час дождь н/о +8.2 +6.0 86 +6 +6 1000.8 987.8 0.2
15 11.12 СЗ 4 20 км {ливн. осадки} 3/1 300 м
[Cu med, cong Ac lent]
+9.1 +4.5 73 +6 +7 1002.9 989.9 0.4
16 11.12 СЗ 4 600 м н/о +9.3 +3.5 67 +7 +7 1004.1 991.1
17 11.12 СЗ 3 800 м н/о +8.7 +3.3 69 +7 +7 1005.8 992.8
18 11.12 ЮВ 1 12 км {ливн. осадки} 3/1 300 м
[Cu med, cong Ac lent]
+7.1 +4.2 82 +6 +6 1007.4 994.3 +9.4
20 11.12 СВ 1 12 км н/о +5.9 +4.1 88 +5 +5 1009.8 996.6
19 11.12 В 1 10 км н/о +6.3 +4.0 85 +6 +6 1008.4 995.2
21 11.12 СВ 1 9000 м н/о +5.2 +4.0 92 +5 +5 1010.9 997.6
22 11.12 В 3 9000 м н/о +4.6 +3.7 94 +1 +1 1012.0 998.7
23 11.12 В 2 н/о н/о +3.9 +3.0 94 +1 +1 1012.9 999.6
00 12.12 СВ 2 7000 м н/о +3.9 +3.2 95 +1 +1 1013.9 1000.5
02 12.12 СВ 2 н/о н/о +3.3 +2.7 96 0 0 1014.7 1001.3
01 12.12 В 2 4900 м н/о +3.4 +2.7 95 0 0 1014.2 1000.8
03 12.12 В 1 7000 м н/о +3.0 +2.4 96 +1 +1 1015.4 1002.0
04 12.12 ЮВ 1 8000 м н/о +2.8 +2.1 95 +2 +2 1016.4 1003.0
05 12.12 В 2 н/о н/о +3.0 +2.3 95 0 0 1016.5 1003.1
06 12.12 СВ 3 10 км 9/9 300 м
[Cu Sc]
+3.3 +2.7 96 -1 -1 1017.2 1003.8 +2.5 0.0
08 12.12 С 1 3900 м н/о +3.4 +2.5 94 +2 +2 1018.6 1005.2
07 12.12 СВ 1 9000 м в посл. час дождь н/о +3.4 +3.0 97 +2 +2 1018.0 1004.6 0.0
09 12.12 В 2 15 км {ливн. осадки} 6/5 300 м
[Sc Ac trans]
+3.9 +3.5 97 +1 +2 1019.4 1006.0 0.0
10 12.12 З 1 1800 м н/о +5.2 +4.5 95 +5 +5 1020.2 1006.8
11 12.12 СЗ 1 2500 м н/о +7.0 +5.8 92 +6 +6 1020.7 1007.4
12 12.12 Ю 1 15 км {ливн. осадки} 9/5 300 м
[Sc Ac As]
+8.1 +6.1 87 +8 +9 1020.8 1007.6
14 12.12 Ю 1 7000 м н/о +10.2 +7.4 83 +10 +10 1020.4 1007.3
13 12.12 СЗ 1 3400 м н/о +9.1 +6.9 86 +8 +8 1021.3 1008.1
15 12.12 Ю 1 10 км 9/5 300 м
[Cu Sc Ac und]
+10.3 +8.1 86 +10 +10 1020.7 1007.6
16 12.12 Ю 1 9000 м н/о +10.0 +7.8 86 +9 +9 1020.8 1007.7
17 12.12 Ю 1 9000 м н/о +9.3 +7.7 90 +9 +9 1021.6 1008.4
18 12.12 ЮВ 1 10 км в посл. час ливневой дождь 8/8 300 м
[Cu Sc]
+8.7 +7.8 94 +8 +8 1022.0 1008.8 +10.4 0.0
20 12.12 СВ 1 7000 м н/о +8.8 +7.6 92 +9 +9 1022.5 1009.3
19 12.12 СВ 1 7000 м н/о +8.8 +7.6 92 +9 +9 1022.5 1009.3
21 12.12 Ю 2 9000 м слаб. морось н/о +8.9 +7.5 91 +7 +7 1022.9 1009.7 0.0
22 12.12 ЮВ 1 3200 м слаб. морось н/о +8.5 +7.9 96 +9 +9 1023.3 1010.1 0.0
23 12.12 Ю 2 6000 м слаб. морось н/о +8.5 +8.1 97 +7 +7 1023.2 1010.0 0.0
00 13.12 Ю 2 6000 м слаб. морось н/о +8.6 +8.3 98 +7 +7 1023.3 1010.1 0.0
02 13.12 Ю 1 3700 м слаб. морось н/о +8.9 +8.8 99 +8 +8 1022.7 1009.5 0.2
01 13.12 Ю 2 13 км в посл. час морось н/о +8.9 +8.6 98 +7 +7 1023.0 1009.8 0.0
03 13.12 Ю 1 9000 м слаб. морось н/о +9.1 +9.1 100 +8 +8 1022.9 1009.7 0.4
04 13.12 С 1 н/о слаб. морось н/о +8.9 +8.9 100 +9 +9 1022.8 1009.6 0.2
05 13.12 Ю 1 2600 м слаб. морось н/о +9.3 +9.3 100 +9 +9 1022.9 1009.7 0.8
06 13.12 В 1 10 км в посл. час ливневой дождь 9/9 300 м
[Cu Sc]
+9.3 +9.3 100 +9 +9 1023.6 1010.4 +8.5 1
08 13.12 В 1 8000 м н/о +9.9 +9.7 99 +10 +10 1024.1 1010.9
07 13.12 СВ 1 12 км н/о +9.4 +9.4 100 +10 +10 1024.4 1011.2
09 13.12 Ю 1 10 км 9/9 200 м
[Frnb]
+10.1 +10.1 100 +9 +9 1024.6 1011.4
10 13.12 ЮЗ 1 12 км н/о +11.4 +11.1 98 +12 +12 1024.9 1011.8
11 13.12 ЮЗ 1 15 км в посл. час морось н/о +11.6 +11.1 97 +12 +12 1025.2 1012.1 0.0
12 13.12 Ю 2 6000 м дымка 10/10 200 м
[Cu Sc]
+12.3 +11.0 92 +12 +12 1024.6 1011.5 0.0
14 13.12 Ю 2 1300 м морось с дождем н/о +11.7 +11.5 99 +11 +11 1023.6 1010.5 0.2
13 13.12 Ю 2 5000 м слаб. морось н/о +12.0 +11.4 96 +11 +11 1023.9 1010.8 0.0
15 13.12 Ю 1 900 м слабый дождь {туман} 10/10 100 м
[Frnb]
+11.6 +11.6 100 +11 +11 1023.3 1010.2 1
16 13.12 Ю 1 2900 м слаб. морось с дождем н/о +11.7 +11.7 100 +11 +11 1023.3 1010.2 0.6
17 13.12 З 1 2400 м морось с дождем н/о +11.8 +11.8 100 +11 +11 1023.2 1010.1 0.8
18 13.12 Ю 1 900 м слабый дождь {туман} 10/10 100 м
[Frnb]
+12.3 +12.3 100 +13 +13 1023.2 1010.1 +12.4 2
20 13.12 Ю 2 800 м морось с дождем н/о +13.4 +13.4 100 +13 +13 1022.9 1009.9 0.4
19 13.12 Ю 2 1200 м морось с дождем н/о +12.6 +12.6 100 +12 +12 1022.8 1009.8 0.8
21 13.12 ЮЗ 2 500 м морось с дождем н/о +13.9 +13.9 100 +14 +14 1023.0 1010.0 2
22 13.12 З 2 200 м слаб. морось н/о +13.9 +13.9 100 +14 +14 1022.9 1009.9 0.2
23 13.12 Ю 1 200 м морось с дождем н/о +13.9 +13.9 100 +14 +14 1022.6 1009.6 0.8
00 14.12 Ю 1 200 м в посл. час морось н/о +13.7 +13.7 100 +15 +15 1022.5 1009.5 1
02 14.12 Ю 1 400 м слаб. морось н/о +13.4 +13.4 100 +13 +13 1021.9 1008.9 0.4
01 14.12 Ю 1 200 м осадки н/о +13.6 +13.6 100 +14 +14 1022.0 1009.0 0.2
03 14.12 Ю 1 1100 м морось с дождем н/о +13.3 +13.3 100 +14 +14 1020.9 1007.9 1
04 14.12 Ю 2 1500 м морось с дождем н/о +13.8 +13.8 100 +13 +13 1019.9 1007.0 0.6
05 14.12 Ю 2 700 м слаб. морось н/о +13.8 +13.8 100 +13 +13 1019.9 1007.0 0.6
06 14.12 ЮЗ 2 3000 м слабый дождь 10/9 200 м
[Frnb Ac As]
+13.8 +13.8 100 +13 +13 1020.0 1007.1 +12.2 2
08 14.12 Ю 1 7000 м н/о +13.3 +13.3 100 +14 +14 1019.8 1006.8
07 14.12 Ю 1 7000 м в посл. час морось н/о +13.4 +13.4 100 +13 +13 1020.1 1007.1 0.0
09 14.12 Ю 1 500 м слабый дождь {ливн. осадки, туман} 10/9 200 м
[Frnb Ac As]
+13.4 +13.4 100 +14 +14 1019.7 1006.7 0.0
10 14.12 Ю 1 200 м осадки н/о +13.5 +13.5 100 +14 +14 1019.7 1006.7 1
11 14.12 ЮЗ 1 900 м морось с дождем н/о +14.0 +14.0 100 +14 +14 1019.1 1006.2 2
12 14.12 Ю 2 1000 м в посл. час дождь {туман} 10/10 100 м
[Frnb]
+14.1 +14.1 100 +14 +14 1018.4 1005.5 3
14 14.12 З 1 н/о н/о +13.9 +13.9 100 +14 +14 1017.8 1004.9
13 14.12 З 3 1600 м в посл. час дождь н/о +13.6 +13.6 100 +12 +12 1018.2 1005.3 0.4
15 14.12 З 2 20 км {дождь, туман} 8/5 200 м
[Sc Ac As Cs]
+13.5 +12.2 92 +13 +13 1017.8 1004.9 0.4
16 14.12 З 4 3400 м н/о +12.7 +10.4 86 +11 +11 1018.5 1005.5
17 14.12 З 2 н/о слаб. морось н/о +12.0 +10.4 90 +11 +11 1018.3 1005.3 0.0
18 14.12 штиль 0 20 км {дождь} 10/8 200 м
[Sc Ac As]
+11.5 +10.7 95 +11 +11 1018.1 1005.1 +14.2 0.0
20 14.12 Ю 1 8000 м слаб. дождь н/о +10.6 +10.3 98 +11 +11 1018.4 1005.3 0.0
19 14.12 ЮВ 2 9000 м н/о +10.7 +10.2 97 +10 +10 1017.9 1004.8
21 14.12 ЮВ 1 6000 м в посл. час дождь {морось} н/о +10.6 +10.6 100 +10 +10 1017.8 1004.7 0.4
22 14.12 Ю 1 2500 м в посл. час морось н/о +10.9 +10.9 100 +11 +11 1017.8 1004.7 0.2
23 14.12 Ю 1 3200 м слаб. морось н/о +11.0 +11.0 100 +10 +10 1017.3 1004.3 0.0
00 15.12 Ю 1 4800 м слаб. морось {дождь} н/о +10.9 +10.9 100 +10 +10 1016.8 1003.8 0.2
02 15.12 Ю 1 6000 м слаб. морось н/о +10.7 +10.7 100 +10 +10 1015.6 1002.6 0.4
01 15.12 Ю 1 900 м морось с дождем н/о +11.0 +11.0 100 +11 +11 1016.1 1003.1 0.4
03 15.12 Ю 1 3600 м слаб. морось н/о +10.7 +10.7 100 +11 +11 1015.5 1002.5 0.8
04 15.12 СЗ 1 15 км в посл. час морось н/о +10.5 +10.5 100 +10 +10 1014.8 1001.8 0.0
05 15.12 С 1 16 км н/о +10.0 +9.7 98 +10 +10 1014.6 1001.5
06 15.12 С 1 20 км 9/4 200 м
[Sc Ac As]
+9.8 +9.0 95 +10 +10 1015.0 1001.9 +9.8 0.0
08 15.12 СЗ 5 11 км н/о +9.4 +7.7 89 +6 +6 1016.0 1002.9
07 15.12 СВ 1 14 км н/о +9.3 +9.0 98 +8 +8 1015.2 1002.1
09 15.12 СВ 1 20 км {дождь} 10/3 200 м
[Cu Sc Ac As]
+8.8 +7.1 89 +8 +8 1016.1 1003.0 0.0
10 15.12 СЗ 1 17 км н/о +9.0 +7.8 92 +9 +9 1016.7 1003.6
11 15.12 СЗ 2 17 км н/о +9.4 +7.7 89 +8 +8 1017.6 1004.5
12 15.12 СЗ 3 19 км {дождь} 9/3 200 м
[Sc As trans]
+9.8 +6.7 81 +8 +9 1017.3 1004.2
13 15.12 СЗ 3 9000 м н/о +10.2 +6.3 77 +8 +8 1016.8 1003.7

 

Местоположение метеостанции Pontevedra (Испания): широта 42.43 долгота -8.62 высота над уровнем моря 108 м.

В архиве по умолчанию представлена погода в Pontevedra за последнюю неделю. Архивные данные за месяц целиком и за предыдущие месяцы, начиная с января 2011 года, Вы можете получить, выбрав интересующий диапазон дат из раскрывающегося списка и нажав кнопку "Ввод!".

Внимание! Время в таблицах - всемирное. Для получения местного времени необходимо прибавить поправку, которая в Pontevedra равна 1 ч.

Смотрите также архив погоды в соседних городах и на ближайших метеорологических станциях:

Погода в Vigo (Испания) (22 км)
Погода в Santiago (Испания) (55 км)
Погода в Orense (Испания) (63 км)
Погода в Viana Do Castelo (Португалия) (90 км)
Погода в La Coruna (Испания) (106 км)
Погода в Lugo (Испания) (123 км)
Погода в Porto (Португалия) (134 км)
Погода в Vila Real (Португалия) (149 км)
Погода в Ponferrada (Испания) (168 км)
Погода в Ovar (Португалия) (168 км)

Пояснения к столбцам:

Ветер - указаны скорость ветра в м/с - средняя за 10 мин, порывы в срок и между сроками (в фигурных скобках) и направление, откуда дует ветер: С - северный, СВ - северо-восточный, В - восточный, ЮВ - юго-восточный, Ю - южный, ЮЗ - юго-западный, З - западный, СЗ - северо-западный.
Видимость - горизонтальная дальность видимости в метрах или километрах. При видимости от 1 до 10 км при отсутствии осадков обычно наблюдается дымка, при ухудшении видимости до 1 км и менее - туман. В сухую погоду видимость может ухудшаться дымом, пылью или мглою.
Явления - указаны атмосферные явления, наблюдавшиеся в срок или в последний час перед сроком; фигурными скобками обозначены явления, наблюдавшиеся между сроками (за 1-3 часа до срока); квадратными скобками обозначены град или гололедные отложения с указанием их диаметра в мм.
Облачность - указаны через наклонную черту общая и нижняя облачность в баллах и высота нижней границы облаков в метрах; квадратными скобками обозначены формы облаков: Ci - перистые, Cs - перисто-слоистые, Cc - перисто-кучевые, Ac - высококучевые, As - высокослоистые, Sc - слоисто-кучевые, Ns - слоисто-дождевые, Cu - кучевые, Cb - кучево-дождевые. Подробнее классификацию облаков см. в Атласе облаков (PDF).
T - Температура воздуха - температура, измеренная на высоте 2 м над землей.
Td - Температура точки росы - температура, при понижении до которой содержащийся в воздухе водяной пар достигнет насыщения.
f - Относительная влажность воздуха - влажноcть воздуха, измеренная на высоте 2 м над землей.
Te - Эффективная температура - температура, которую ощущает одетый по сезону человек в тени. Характеристика душности погоды. При расчете учитывается влияние влажности воздуха и скорости ветра на теплоощущения человека.
Tes - Эффективная температура на солнце - температура, которую ощущает человек, с поправкой на солнечный нагрев. Характеристика знойности погоды. Зависит от высоты солнца над горизонтом, облачности и скорости ветра. Ночью, в пасмурную погоду, а также при ветре 12 м/с и более поправка равна нулю.
P - Атмосферное давление - приведенное к уровню моря атмосферное давление.
Po - Атмосферное давление - измеренное на уровне метеостанции атмосферное давление.
Tmin - Минимальная температура - минимум температуры воздуха на высоте 2 м над землей.
Tmax - Максимальная температура - максимум температуры воздуха на высоте 2 м над землей.
R - Количество осадков - Количество выпавших осадков за период времени, мм. При наведении курсора мыши на число - период времени, за который выпало указанное количество осадков.
R24 - Количество осадков - Количество выпавших осадков за 24 часа, мм.
S - Снежный покров - Высота снежного покрова, см. При наведении курсора мыши на число - состояние снежного покрова и степень покрытия местности в баллах.